Location: Unspecified
(0.0000°N, 0.0000°E)
Time: 00:06:44
(UTC+00:00)

ISS - Pass Details

Date: 19 February 2020
Orbit: 415 x 422 km, 51.6° (Epoch: 27 February)

Event Time Altitude Azimuth Distance (km) Brightness Sun altitude
Exits shadow 04:46:20 22° 20° (NNE) 955 -1.9 -21.4°
Drops below altitude 10° 04:47:41 10° 27° (NNE) 1,485 -0.8 -21.1°
Sets 04:49:48 0° 30° (NNE) 2,346 0.3 -20.6°
